Regional Weather Roundup
Issued by NWS

Home | Current Version | Previous Version | Text Only | Print | Product List | Glossary On
Versions: 1 2 3 4 5 6 7 8 9 10 11 12 13 14 15 16 17 18 19 20 21 22 23 24 25 26 27 28 29 30 31 32 33 34 35 36 37 38 39 40 41 42 43 44 45 46 47 48 49 50
000
ASUS43 KDTX 010801
RWRMI
MICHIGAN HOURLY REGIONAL WEATHER ROUNDUP
NATIONAL WEATHER SERVICE DETROIT/PONTIAC MI
400 AM EDT MON SEP 01 2014

NOTE: "FAIR" INDICATES FEW OR NO CLOUDS BELOW 12,000 FEET WITH NO
SIGNIFICANT WEATHER AND/OR OBSTRUCTION TO VISIBILITY.

MIZ047>049-052>055-059>063-066>070-074>076-081>083-010900-
SOUTHEAST LOWER MICHIGAN

CITY           SKY/WX    TMP DP  RH WIND       PRES   REMARKS
ADRIAN         CLEAR     68  66  93 SW5       29.94F
ALMA           FOG       62  61  97 S3        29.89F VSB 1
BAD AXE        PTCLDY    66  66 100 S6        29.91F FOG
CARO           FOG       62  62  98 CALM      29.90F VSB 1/4
DETROIT CITY   PTCLDY    75  69  81 SW7       29.93F
DETROIT        PTCLDY    70  68  93 S6        29.93F FOG
FLINT          CLEAR     70  64  81 S5        29.91F
GROSSE ILE     CLEAR     73  70  88 SW3       29.92F
HILLSDALE      CLEAR     70  70 100 S3        29.94F FOG
HOWELL         PTCLDY    65  64  97 SE3       29.92F FOG

CITY           SKY/WX    TMP DP  RH WIND       PRES   REMARKS
JACKSON        CLEAR     69  67  93 S6        29.92F
LAMBERTVILLE   CLOUDY    72  68  88 S5        29.94F
LANSING        PTCLDY    68  65  90 S7        29.91F
LAPEER         FOG       62  61  96 CALM      29.92F VSB 1
MASON          CLEAR     66  65  96 CALM      29.91F FOG
MONROE         PTCLDY    72  70  94 SW5       29.92F
MT. CLEMENS    CLEAR     72  68  89 SW6       29.92S
PONTIAC        CLEAR     68  65  90 CALM      29.92F
PORT HOPE        N/A     68  65  90 VRB3      29.88F
PORT HURON     FOG       66  66 100 CALM      29.93S VSB 1/4
TRI CITIES     CLEAR     67  65  93 S5        29.89F
TROY           CLEAR     73  69  87 S3        29.94F
SAGINAW HB     CLEAR     64  64 100 S5        29.89F FOG
$$
MIZ043>046-050>051-056>058-064>065-071>073-077>080-010900-
SOUTHWEST LOWER MICHIGAN

CITY           SKY/WX    TMP DP  RH WIND       PRES   REMARKS
BATTLE CREEK   CLEAR     70  67  90 S7        29.91F FOG
BENTON HARBOR  CLEAR     71  69  93 S7        29.88S
BIG RAPIDS     MOCLDY    61  61 100 CALM      29.88R
COLDWATER      CLEAR     71  70  95 SW7       29.92F FOG
FREMONT        FAIR      67  66  96 S3        29.86S
HOLLAND        PTCLDY    70  68  93 S6        29.87F
GRAND RAPIDS   PTCLDY    68  68 100 S8        29.88F
IONIA          FAIR      66  65  97 S7        29.89S
KALAMAZOO      MOCLDY    71  68  90 S8        29.90F FOG
LUDINGTON      PTCLDY    69  67  90 S6        29.84S
MARSHALL       CLEAR     68  67  98 CALM      29.91F FOG
MOUNT PLEASANT FOG       58  58  99 CALM      29.87F VSB 3/4
MUSKEGON       MOCLDY    71  67  87 SE7       29.86S
SOUTH HAVEN    PTCLDY    72  70  95 SW7       29.88S
$$
MIZ016>042-010900-
NORTHERN LOWER MICHIGAN

CITY           SKY/WX    TMP DP  RH WIND       PRES   REMARKS
ALPENA         FOG       60  60 100 CALM      29.90F VSB 1/4
BEAVER ISLAND  CLEAR     65  64  94 S7        29.81F
BELLAIRE       CLEAR     60  58  96 CALM      29.83F FOG
CADILLAC       CLOUDY    67  64  90 S5        29.88S
CHARLEVOIX     CLEAR     64  64  99 SE7       29.85F
FRANKFORT      CLOUDY    71  63  76 S6        29.82S
GAYLORD        CLEAR     61  60  97 SE6       29.88F
GRAYLING       CLEAR     58  58 100 CALM      29.89F FOG
HARBOR SPRINGS CLEAR     64  61  92 NE5       29.83F
HOUGHTON LAKE  PTCLDY    60  60 100 CALM      29.89S FOG
MANISTEE       MOCLDY    66  63  88 SE3       29.84F
OSCODA         PTCLDY    59  58  96 CALM      29.88F
PELLSTON       CLEAR     62  61  96 SE7       29.84F
ROGERS CITY    PTCLDY    61  61 100 SE6       29.89F
TRAVERSE CITY  MOCLDY    67  62  84 S5        29.82F
$$
MIZ007>008-015-010900-
EASTERN UPPER MICHIGAN

CITY           SKY/WX    TMP DP  RH WIND       PRES   REMARKS
KINROSS        CLOUDY    61  59  94 SE13      29.85F
MACKINAC ISLAN CLEAR     62  62  99 SE9       29.83F
NEWBERRY       PTCLDY    61  60  97 S8        29.79F
S. S. MARIE    PTCLDY    60  58  92 E6        29.85F
$$
MIZ004>006-011>014-085-010900-
CENTRAL UPPER MICHIGAN

CITY           SKY/WX    TMP DP  RH WIND       PRES   REMARKS
MANISTIQUE     PTCLDY    64  63  97 SE7       29.78S
ESCANABA       MOCLDY    66  63  88 S8        29.75F
MENOMINEE      MOCLDY    70  64  83 S8        29.73F
SAWYER-GWINN   CLOUDY    64  63  96 S13       29.74F FOG
$$
MIZ001>003-009>011-084-010900-
WESTERN UPPER MICHIGAN

CITY           SKY/WX    TMP DP  RH WIND       PRES   REMARKS
IRON MOUNTAIN  CLOUDY    66  64  93 SE9       29.72F FOG
HOUGHTON       LGT RAIN  67  64  90 S9        29.67R
COPPER HARBOR    N/A     64  61  90 SW10G18   29.65S
$$

ABBREVIATIONS USED IN REMARKS
   TC - TEMPERATURE IN CELSIUS
  WCI - WIND CHILL INDEX
   HX - HEAT INDEX
  VSB - VISIBILITY




USA.gov is the U.S. government's official web portal to all federal, state and local government web resources and services.